This is the latest recevied weather packets stored in our database for station/object AD4CG. If no packets are shown the sender has not sent any weather packets the latest 10 day(s).
| Time | Temp. | Humidity | Pressure | Rain* | Wind** | Luminosity | Snow |
|---|---|---|---|---|---|---|---|
| 1777391931 | 15.56° C | 90% | 1020.7 hPa | 0 mm | - | - | - |
| 1777390680 | 15° C | 92% | 1022 hPa | 0 mm | - | - | - |
| 1777390368 | 14.44° C | 95% | 1022.4 hPa | 0 mm | - | - | - |
| 1777387864 | 13.33° C | 100% | 1023.7 hPa | 0 mm | - | - | - |
| 1777387234 | 13.33° C | 99% | 1024 hPa | 0 mm | - | - | - |
| 1777383787 | 13.33° C | 100% | 1024.4 hPa | 0 mm | - | - | - |
| 1777381907 | 12.22° C | 100% | 1025.4 hPa | 0 mm | - | - | - |
| 1777378810 | 10.56° C | 78% | 1025.4 hPa | 0 mm | - | - | - |
| 1777378179 | 10.56° C | 78% | 1025.7 hPa | 0 mm | - | - | - |
| 1777377554 | 9.44° C | 90% | 1025.4 hPa | 0 mm | - | - | - |
| 1777375983 | 7.22° C | 100% | 1024 hPa | 0 mm | - | - | - |
| 1777375353 | 7.22° C | 100% | 1023.7 hPa | 0 mm | - | - | - |
| 1777373476 | 6.11° C | 100% | 1023 hPa | 0 mm | - | - | - |
| 1777366502 | 6.67° C | 100% | 1022.7 hPa | 0 mm | - | - | - |
| 1777363996 | 6.67° C | 98% | 1022.7 hPa | 0 mm | - | - | - |
| 1777362433 | 7.22° C | 92% | 1023 hPa | 0 mm | - | - | - |
| 1777361809 | 7.78° C | 92% | 1023.4 hPa | 0 mm | - | - | - |
| 1777360558 | 8.33° C | 93% | 1023.4 hPa | 0 mm | - | - | - |
| 1777359612 | 8.33° C | 92% | 1023.7 hPa | 0 mm | - | - | - |
| 1777357737 | 8.33° C | 95% | 1023.4 hPa | 0 mm | - | - | - |
| 1777355539 | 8.89° C | 93% | 1023.7 hPa | 0 mm | - | - | - |
| 1777353666 | 9.44° C | 90% | 1024 hPa | 0 mm | - | - | - |
| 1777353353 | 9.44° C | 91% | 1024.4 hPa | 0 mm | - | - | - |
| 1777352728 | 10° C | 89% | 1024.4 hPa | 0 mm | - | - | - |
| 1777348665 | 11.67° C | 76% | 1024.4 hPa | 0 mm | - | - | - |
* Rain latest hour (hover to see other rain measurements)
** Current wind speed in m/s (hover to see current wind gust speed)